• In Germany
  • List of Countries
  • For 7 days
  • Water Temperature
  • Satellite Maps
  • Weather Map
  • Weather Widgets
  • user-avatar
    Login

    Hourly Weather Mingachevir

    Today, 27 June, Tuesday

    Time Temperature Precipitation Wind Pressure Humidity
    00:00 +23°C° 0 mm 2 mps 754 mmHg 71%
    01:00 +23°C° 0 mm 2 mps 754 mmHg 73%
    02:00 +22°C° 0 mm 1 mps 754 mmHg 76%
    03:00 +22°C° 0 mm 1 mps 754 mmHg 79%
    04:00 +23°C° 0 mm 1 mps 753 mmHg 77%
    05:00 +24°C° 0 mm 1 mps 753 mmHg 74%
    06:00 +25°C° 0 mm 1 mps 753 mmHg 72%
    07:00 +26°C° 0 mm 1 mps 753 mmHg 66%
    08:00 +27°C° 0 mm 2 mps 753 mmHg 61%
    09:00 +29°C° 0 mm 2 mps 752 mmHg 55%
    10:00 +30°C° 0 mm 2 mps 752 mmHg 51%
    11:00 +31°C° 0 mm 2 mps 751 mmHg 47%
    12:00 +34°C° 0 mm 2 mps 751 mmHg 43%
    13:00 +35°C° 0 mm 2 mps 750 mmHg 41%
    14:00 +35°C° 0 mm 3 mps 750 mmHg 39%
    15:00 +36°C° 0 mm 3 mps 749 mmHg 37%
    16:00 +36°C° 0 mm 3 mps 749 mmHg 39%
    17:00 +36°C° 0 mm 3 mps 749 mmHg 40%
    18:00 +35°C° 0 mm 3 mps 749 mmHg 41%
    19:00 +33°C° 0 mm 3 mps 749 mmHg 47%
    20:00 +30°C° 0 mm 3 mps 750 mmHg 54%
    21:00 +28°C° 0 mm 3 mps 750 mmHg 60%
    22:00 +27°C° 0 mm 3 mps 750 mmHg 64%
    23:00 +26°C° 0 mm 2 mps 750 mmHg 68%

    Tomorrow, 28 June, Wednesday

    Time Temperature Precipitation Wind Pressure Humidity
    00:00 +25°C° 0 mm 2 mps 750 mmHg 71%
    01:00 +24°C° 0 mm 1 mps 750 mmHg 74%
    02:00 +24°C° 0 mm 1 mps 750 mmHg 76%
    03:00 +21°C° 0 mm 0 mps 750 mmHg 78%
    04:00 +24°C° 0 mm 1 mps 750 mmHg 75%
    05:00 +25°C° 0 mm 1 mps 750 mmHg 72%
    06:00 +26°C° 0 mm 1 mps 750 mmHg 69%
    07:00 +28°C° 0 mm 1 mps 749 mmHg 62%
    08:00 +30°C° 0 mm 1 mps 749 mmHg 55%
    09:00 +32°C° 0 mm 1 mps 749 mmHg 49%
    10:00 +34°C° 0 mm 2 mps 749 mmHg 44%
    11:00 +35°C° 0 mm 2 mps 748 mmHg 40%
    12:00 +37°C° 0 mm 2 mps 748 mmHg 36%
    13:00 +38°C° 0 mm 2 mps 747 mmHg 34%
    14:00 +38°C° 0 mm 2 mps 747 mmHg 32%
    15:00 +39°C° 0 mm 3 mps 747 mmHg 30%
    16:00 +39°C° 0 mm 3 mps 747 mmHg 32%
    17:00 +38°C° 0 mm 3 mps 747 mmHg 33%
    18:00 +38°C° 0 mm 2 mps 747 mmHg 34%
    19:00 +36°C° 0 mm 3 mps 747 mmHg 38%
    20:00 +33°C° 0 mm 3 mps 748 mmHg 41%
    21:00 +30°C° 0 mm 3 mps 748 mmHg 44%
    22:00 +29°C° 0 mm 3 mps 748 mmHg 47%
    23:00 +28°C° 0 mm 2 mps 748 mmHg 50%

    Day after tomorrow, 29 June, Thursday

    Time Temperature Precipitation Wind Pressure Humidity
    00:00 +27°C° 0 mm 1 mps 748 mmHg 52%
    01:00 +26°C° 0 mm 1 mps 748 mmHg 55%
    02:00 +26°C° 0 mm 1 mps 748 mmHg 57%
    03:00 +25°C° 0 mm 1 mps 748 mmHg 60%
    04:00 +26°C° 0 mm 1 mps 748 mmHg 57%
    05:00 +26°C° 0 mm 0 mps 749 mmHg 54%
    06:00 +27°C° 0 mm 0 mps 749 mmHg 51%
    07:00 +31°C° 0 mm 1 mps 749 mmHg 44%
    08:00 +32°C° 0 mm 1 mps 749 mmHg 38%
    09:00 +34°C° 0 mm 1 mps 749 mmHg 31%
    10:00 +35°C° 0 mm 1 mps 748 mmHg 29%
    11:00 +37°C° 0 mm 2 mps 748 mmHg 26%
    12:00 +38°C° 0 mm 2 mps 748 mmHg 24%
    13:00 +39°C° 0 mm 2 mps 747 mmHg 23%
    14:00 +39°C° 0 mm 3 mps 747 mmHg 22%
    15:00 +40°C° 0 mm 3 mps 747 mmHg 21%
    16:00 +39°C° 0 mm 3 mps 747 mmHg 22%
    17:00 +39°C° 0 mm 3 mps 747 mmHg 23%
    18:00 +38°C° 0 mm 3 mps 747 mmHg 25%
    19:00 +36°C° 0 mm 3 mps 747 mmHg 27%
    20:00 +33°C° 0 mm 3 mps 748 mmHg 29%
    21:00 +30°C° 0 mm 3 mps 748 mmHg 32%
    22:00 +29°C° 0 mm 3 mps 748 mmHg 33%
    23:00 +28°C° 0 mm 2 mps 748 mmHg 35%

    30 June, Friday

    Time Temperature Precipitation Wind Pressure Humidity
    00:00 +27°C° 0 mm 2 mps 748 mmHg 36%
    01:00 +26°C° 0 mm 2 mps 748 mmHg 37%
    02:00 +26°C° 0 mm 1 mps 748 mmHg 38%
    03:00 +25°C° 0 mm 1 mps 748 mmHg 39%
    04:00 +26°C° 0 mm 1 mps 748 mmHg 38%
    05:00 +27°C° 0 mm 2 mps 749 mmHg 37%
    06:00 +29°C° 0 mm 2 mps 749 mmHg 36%
    07:00 +31°C° 0 mm 2 mps 749 mmHg 31%
    08:00 +34°C° 0 mm 3 mps 749 mmHg 26%
    09:00 +35°C° 0 mm 3 mps 749 mmHg 21%
    10:00 +37°C° 0 mm 3 mps 749 mmHg 20%
    11:00 +38°C° 0 mm 2 mps 748 mmHg 18%
    12:00 +39°C° 0 mm 2 mps 748 mmHg 17%
    13:00 +39°C° 0 mm 2 mps 748 mmHg 16%
    14:00 +40°C° 0 mm 2 mps 747 mmHg 16%
    15:00 +40°C° 0 mm 2 mps 747 mmHg 15%
    16:00 +40°C° 0 mm 2 mps 748 mmHg 17%
    17:00 +39°C° 0 mm 3 mps 748 mmHg 18%
    18:00 +39°C° 0 mm 3 mps 748 mmHg 20%
    19:00 +36°C° 0 mm 3 mps 749 mmHg 22%
    20:00 +34°C° 0 mm 3 mps 749 mmHg 24%
    21:00 +30°C° 0 mm 3 mps 750 mmHg 27%
    22:00 +29°C° 0 mm 3 mps 750 mmHg 28%
    23:00 +29°C° 0 mm 3 mps 750 mmHg 29%

    1 July, Saturday

    Time Temperature Precipitation Wind Pressure Humidity
    00:00 +28°C° 0 mm 3 mps 750 mmHg 30%
    01:00 +27°C° 0 mm 2 mps 750 mmHg 31%
    02:00 +27°C° 0 mm 2 mps 751 mmHg 33%
    03:00 +26°C° 0 mm 2 mps 751 mmHg 34%
    04:00 +27°C° 0 mm 2 mps 751 mmHg 34%
    05:00 +28°C° 0 mm 2 mps 751 mmHg 33%
    06:00 +29°C° 0 mm 2 mps 752 mmHg 33%
    07:00 +31°C° 0 mm 2 mps 752 mmHg 29%
    08:00 +32°C° 0 mm 2 mps 752 mmHg 25%
    09:00 +35°C° 0 mm 2 mps 752 mmHg 21%
    10:00 +37°C° 0 mm 2 mps 752 mmHg 20%
    11:00 +38°C° 0 mm 2 mps 751 mmHg 18%
    12:00 +39°C° 0 mm 2 mps 751 mmHg 17%
    13:00 +40°C° 0 mm 3 mps 751 mmHg 16%
    14:00 +41°C° 0 mm 4 mps 750 mmHg 16%
    15:00 +42°C° 0 mm 5 mps 750 mmHg 15%
    16:00 +41°C° 0 mm 5 mps 750 mmHg 17%
    17:00 +40°C° 0 mm 5 mps 750 mmHg 18%
    18:00 +39°C° 0 mm 6 mps 751 mmHg 20%
    19:00 +36°C° 0 mm 5 mps 751 mmHg 23%
    20:00 +34°C° 0 mm 4 mps 752 mmHg 25%
    21:00 +30°C° 0 mm 4 mps 752 mmHg 28%
    22:00 +29°C° 0 mm 3 mps 752 mmHg 29%
    23:00 +28°C° 0 mm 3 mps 752 mmHg 31%

    2 July, Sunday

    Time Temperature Precipitation Wind Pressure Humidity
    00:00 +27°C° 0 mm 2 mps 752 mmHg 33%
    01:00 +27°C° 0 mm 2 mps 752 mmHg 33%
    02:00 +26°C° 0 mm 2 mps 752 mmHg 32%
    03:00 +26°C° 0 mm 2 mps 752 mmHg 32%
    04:00 +27°C° 0 mm 1 mps 752 mmHg 32%
    05:00 +28°C° 0 mm 1 mps 752 mmHg 33%
    06:00 +29°C° 0 mm 1 mps 752 mmHg 34%
    07:00 +31°C° 0 mm 1 mps 752 mmHg 29%
    08:00 +33°C° 0 mm 1 mps 751 mmHg 25%
    09:00 +35°C° 0 mm 1 mps 751 mmHg 20%
    10:00 +36°C° 0 mm 1 mps 750 mmHg 19%
    11:00 +39°C° 0 mm 2 mps 750 mmHg 17%
    12:00 +40°C° 0 mm 2 mps 749 mmHg 16%
    13:00 +40°C° 0 mm 3 mps 749 mmHg 16%
    14:00 +42°C° 0 mm 4 mps 748 mmHg 15%
    15:00 +43°C° 0 mm 4 mps 748 mmHg 15%
    16:00 +42°C° 0 mm 4 mps 748 mmHg 17%
    17:00 +41°C° 0 mm 4 mps 748 mmHg 18%
    18:00 +40°C° 0 mm 4 mps 748 mmHg 20%
    19:00 +37°C° 0 mm 4 mps 748 mmHg 22%
    20:00 +34°C° 0 mm 3 mps 748 mmHg 24%
    21:00 +30°C° 0 mm 3 mps 749 mmHg 26%
    22:00 +29°C° 0 mm 3 mps 748 mmHg 28%
    23:00 +28°C° 0 mm 2 mps 748 mmHg 30%
    Show more